FW0864 Weather Reports


Display with metric or nautical units.
time (UTC)temp
F
wind
direction
speed
MPH
gust
MPH
rain 1hr
in
rain 24hr
in
rain mn
in
humidity
%
barometer
mb
20260903184051 75 251 2.0 8.0 0.00 0.00 0.00 51 1011.1
20260903183551 75 241 5.0 8.0 0.00 0.00 0.00 52 1011.1
20260903183048 74 264 5.0 10.0 0.00 0.00 0.00 52 1011.2
20260903182547 74 307 4.0 10.0 0.00 0.00 0.00 54 1011.2
20260903182047 74 318 6.0 10.0 0.00 0.00 0.00 53 1011.3
20260903181544 74 274 2.0 8.0 0.00 0.00 0.00 54 1011.2
20260903181042 74 310 3.0 8.0 0.00 0.00 0.00 54 1011.3
20260903180541 73 58 2.0 7.0 0.00 0.00 0.00 57 1011.2
20260903180040 73 259 3.0 8.0 0.00 0.00 0.00 56 1011.4
20260903175538 73 281 3.0 10.0 0.00 0.00 0.00 56 1011.4
20260903175037 73 257 6.0 10.0 0.00 0.00 0.00 56 1011.4
20260903174536 73 262 1.0 7.0 0.00 0.00 0.00 58 1011.5
20260903174035 72 289 1.0 9.0 0.00 0.00 0.00 60 1011.6
20260903173534 71 339 1.0 9.0 0.00 0.00 0.00 61 1011.6
20260903173031 71 305 3.0 11.0 0.00 0.00 0.00 61 1011.6
20260903172531 70 295 3.0 12.0 0.00 0.00 0.00 62 1011.7
20260903172030 70 312 7.0 11.0 0.00 0.00 0.00 61 1011.7
20260903171539 70 279 2.0 8.0 0.00 0.00 0.00 63 1011.8
20260903171025 69 330 3.0 8.0 0.00 0.00 0.00 64 1011.9
20260903170527 69 340 3.0 10.0 0.00 0.00 0.00 64 1011.9
20260903170024 69 349 4.0 11.0 0.00 0.00 0.00 65 1011.8
20260903165522 68 345 4.0 11.0 0.00 0.00 0.00 66 1011.9
20260903165021 68 9 5.0 11.0 0.00 0.00 0.00 66 1011.9
20260903164519 68 330 4.0 12.0 0.00 0.00 0.00 67 1011.9
20260903164018 67 327 6.0 12.0 0.00 0.00 0.00 67 1011.9
20260903163517 67 327 5.0 12.0 0.00 0.00 0.00 68 1011.9
20260903163015 67 62 4.0 12.0 0.00 0.00 0.00 69 1011.9
20260903162514 67 333 5.0 12.0 0.00 0.00 0.00 69 1011.8
20260903162012 66 238 6.0 12.0 0.00 0.00 0.00 70 1011.8
20260903161515 66 276 6.0 11.0 0.00 0.00 0.00 70 1011.9
20260903161009 66 289 4.0 9.0 0.00 0.00 0.00 71 1012.0
20260903160508 66 333 4.0 10.0 0.00 0.00 0.00 71 1012.0
20260903160008 65 276 4.0 12.0 0.00 0.00 0.00 72 1012.1
20260903155508 65 286 5.0 12.0 0.00 0.00 0.00 72 1012.1
20260903155005 65 307 5.0 11.0 0.00 0.00 0.00 73 1012.2
20260903154503 64 252 6.0 13.0 0.00 0.00 0.00 73 1012.2
20260903154002 64 322 7.0 13.0 0.00 0.00 0.00 74 1012.2
20260903153604 64 331 6.0 12.0 0.00 0.00 0.00 74 1012.2
20260903153059 63 287 4.0 10.0 0.00 0.00 0.00 75 1012.3
20260903152601 63 332 2.0 11.0 0.00 0.00 0.00 76 1012.4
20260903152100 63 322 5.0 11.0 0.00 0.00 0.00 77 1012.3
20260903151557 62 326 5.0 11.0 0.00 0.00 0.00 78 1012.3
20260903151059 62 336 5.0 10.0 0.00 0.00 0.00 78 1012.3
20260903150556 62 308 4.0 11.0 0.00 0.00 0.00 79 1012.2
20260903150100 61 317 5.0 11.0 0.00 0.00 0.00 79 1012.2
20260903145556 61 312 4.0 11.0 0.00 0.00 0.00 80 1012.1
20260903145057 61 333 4.0 13.0 0.00 0.00 0.00 81 1012.2
20260903144553 60 325 6.0 13.0 0.00 0.00 0.00 81 1012.1
20260903144051 60 354 4.0 11.0 0.00 0.00 0.00 81 1012.1
20260903143548 60 359 3.0 9.0 0.00 0.00 0.00 81 1012.0
20260903143048 60 313 2.0 8.0 0.00 0.00 0.00 82 1012.0
20260903142550 60 294 3.0 7.0 0.00 0.00 0.00 82 1011.9
20260903142043 59 318 2.0 6.0 0.00 0.00 0.00 82 1012.0
20260903141543 59 345 3.0 6.0 0.00 0.00 0.00 82 1011.9
20260903141042 59 308 2.0 7.0 0.00 0.00 0.00 82 1011.9
20260903140542 59 274 3.0 7.0 0.00 0.00 0.00 82 1011.9
20260903140040 59 10 3.0 8.0 0.00 0.00 0.00 82 1011.8
20260903135542 59 327 3.0 8.0 0.00 0.00 0.00 82 1011.7
20260903135039 59 281 3.0 6.0 0.00 0.00 0.00 82 1011.7
20260903134538 59 295 3.0 8.0 0.00 0.00 0.00 81 1011.7
20260903134041 59 312 3.0 9.0 0.00 0.00 0.00 81 1011.6
20260903133539 59 323 4.0 9.0 0.00 0.00 0.00 81 1011.6
20260903133042 59 303 3.0 10.0 0.00 0.00 0.00 81 1011.5
20260903132537 59 319 4.0 10.0 0.00 0.00 0.00 81 1011.5
20260903132035 59 312 4.0 10.0 0.00 0.00 0.00 81 1011.5
20260903131536 59 305 4.0 10.0 0.00 0.00 0.00 81 1011.5
20260903131036 59 298 4.0 9.0 0.00 0.00 0.00 81 1011.5
20260903130534 59 315 3.0 8.0 0.00 0.00 0.00 81 1011.5
20260903130035 59 308 4.0 8.0 0.00 0.00 0.00 81 1011.6
20260903125536 60 354 3.0 8.0 0.00 0.00 0.00 80 1011.5
20260903125033 60 312 2.0 8.0 0.00 0.00 0.00 80 1011.6
20260903124534 60 252 3.0 8.0 0.00 0.00 0.00 80 1011.5
20260903124032 60 248 3.0 9.0 0.00 0.00 0.00 80 1011.5
20260903123539 60 324 3.0 10.0 0.00 0.00 0.00 80 1011.5
20260903123034 60 260 4.0 10.0 0.00 0.00 0.00 80 1011.6
20260903122532 60 315 4.0 7.0 0.00 0.00 0.00 80 1011.5
20260903122031 60 317 3.0 7.0 0.00 0.00 0.00 80 1011.4
20260903121541 60 354 3.0 10.0 0.00 0.00 0.00 79 1011.5
20260903121030 60 295 4.0 10.0 0.00 0.00 0.00 79 1011.6
20260903120532 60 323 3.0 9.0 0.00 0.00 0.00 79 1011.6
20260903120041 60 332 4.0 9.0 0.00 0.00 0.00 79 1011.7
20260903115528 60 301 4.0 10.0 0.00 0.00 0.00 79 1011.7
20260903115032 60 354 3.0 10.0 0.00 0.00 0.00 79 1011.7
20260903114528 60 306 4.0 10.0 0.00 0.00 0.00 79 1011.8
20260903114029 60 320 4.0 10.0 0.00 0.00 0.00 78 1011.7
20260903113526 61 336 3.0 9.0 0.00 0.00 0.00 78 1011.7
20260903113026 61 325 4.0 10.0 0.00 0.00 0.00 78 1011.8
20260903112525 61 318 5.0 10.0 0.00 0.00 0.00 78 1011.8
20260903112023 61 333 3.0 9.0 0.00 0.00 0.00 78 1011.8
20260903111523 61 295 4.0 9.0 0.00 0.00 0.00 78 1011.8
20260903111023 61 261 3.0 9.0 0.00 0.00 0.00 77 1011.8
20260903110523 61 338 3.0 10.0 0.00 0.00 0.00 77 1011.9
20260903110023 61 326 5.0 10.0 0.00 0.00 0.00 77 1011.8
20260903105521 61 303 5.0 9.0 0.00 0.00 0.00 77 1011.8
20260903105025 61 308 4.0 12.0 0.00 0.00 0.00 77 1011.8
20260903104519 61 335 5.0 11.0 0.00 0.00 0.00 77 1011.9
20260903104017 61 291 4.0 11.0 0.00 0.00 0.00 77 1012.0
20260903103517 62 307 4.0 17.0 0.00 0.00 0.00 76 1012.0
20260903103019 62 332 6.0 17.0 0.00 0.00 0.00 76 1012.0
20260903102516 62 289 6.0 13.0 0.00 0.00 0.00 76 1012.1
20260903102017 62 359 5.0 10.0 0.00 0.00 0.00 75 1012.1
20260903101514 62 299 4.0 10.0 0.00 0.00 0.00 75 1012.1
20260903101014 62 324 5.0 10.0 0.00 0.00 0.00 74 1012.0
20260903100513 62 349 4.0 9.0 0.00 0.00 0.00 74 1011.9
20260903100012 62 324 4.0 9.0 0.00 0.00 0.00 74 1012.0
20260903095512 62 302 3.0 10.0 0.00 0.00 0.00 73 1012.0
20260903095010 63 337 4.0 10.0 0.00 0.00 0.00 73 1012.1
20260903094509 63 289 3.0 12.0 0.00 0.00 0.00 73 1012.1
20260903094012 63 305 6.0 12.0 0.00 0.00 0.00 73 1012.0
20260903093508 63 320 6.0 10.0 0.00 0.00 0.00 73 1012.0
20260903093010 63 327 5.0 12.0 0.00 0.00 0.00 73 1012.0
20260903092510 63 327 4.0 12.0 0.00 0.00 0.00 73 1012.1
20260903092006 63 328 5.0 14.0 0.00 0.00 0.00 73 1012.1
20260903091506 63 322 5.0 14.0 0.00 0.00 0.00 73 1012.1
20260903091005 63 347 4.0 12.0 0.00 0.00 0.00 73 1012.2
20260903090504 63 335 5.0 15.0 0.00 0.00 0.00 73 1012.1
20260903090004 64 330 5.0 15.0 0.00 0.00 0.00 73 1012.2
20260903085503 64 338 4.0 11.0 0.00 0.00 0.00 73 1012.2
20260903085002 64 354 4.0 12.0 0.00 0.00 0.00 73 1012.2
20260903084502 64 354 4.0 12.0 0.00 0.00 0.00 72 1012.2
20260903084100 64 334 5.0 11.0 0.00 0.00 0.00 72 1012.2
20260903083603 64 354 4.0 12.0 0.00 0.00 0.00 71 1012.2
20260903083059 64 335 5.0 12.0 0.00 0.00 0.00 71 1012.1
20260903082558 64 326 5.0 10.0 0.00 0.00 0.00 71 1012.2
20260903082057 65 319 4.0 11.0 0.00 0.00 0.00 71 1012.2
20260903081556 65 345 3.0 10.0 0.00 0.00 0.00 70 1012.2
20260903081055 65 314 5.0 12.0 0.00 0.00 0.00 70 1012.2
20260903080555 65 335 6.0 14.0 0.00 0.00 0.00 70 1012.1
20260903080055 65 345 5.0 14.0 0.00 0.00 0.00 70 1012.2
20260903075554 65 299 5.0 11.0 0.00 0.00 0.00 69 1012.2
20260903074030 66 302 4.0 11.0 0.00 0.00 0.00 68 1012.1
20260903073530 66 359 4.0 10.0 0.00 0.00 0.00 68 1012.1
20260903073029 66 321 3.0 10.0 0.00 0.00 0.00 67 1012.2
20260903072528 66 318 4.0 10.0 0.00 0.00 0.00 67 1012.2
20260903072028 66 343 4.0 12.0 0.00 0.00 0.00 66 1012.1
20260903071530 66 9 4.0 12.0 0.00 0.00 0.00 66 1012.2
20260903071026 66 299 5.0 11.0 0.00 0.00 0.00 65 1012.2
20260903070525 67 335 5.0 11.0 0.00 0.00 0.00 65 1012.2
20260903070025 67 340 4.0 10.0 0.00 0.00 0.00 64 1012.2
20260903065526 67 304 4.0 10.0 0.00 0.00 0.00 63 1012.2
20260903065030 67 314 3.0 10.0 0.00 0.00 0.00 63 1012.1
20260903064525 67 289 4.0 11.0 0.00 0.00 0.00 62 1012.1
20260903064025 67 34 4.0 11.0 0.00 0.00 0.00 61 1012.1
20260903063525 67 354 4.0 10.0 0.00 0.00 0.00 61 1012.1
20260903063024 68 310 4.0 11.0 0.00 0.00 0.00 61 1012.1
20260903062527 68 309 3.0 8.0 0.00 0.00 0.00 60 1012.0
20260903062024 68 305 3.0 13.0 0.00 0.00 0.00 60 1012.1
20260903061536 68 317 4.0 13.0 0.00 0.00 0.00 60 1012.0
20260903061023 68 290 6.0 11.0 0.00 0.00 0.00 59 1012.1
20260903060523 69 322 5.0 11.0 0.00 0.00 0.00 60 1012.0
20260903060023 69 337 6.0 14.0 0.00 0.00 0.00 60 1012.0
20260903055523 69 322 6.0 14.0 0.00 0.00 0.00 60 1012.0
20260903055023 69 314 7.0 13.0 0.00 0.00 0.00 60 1012.1
20260903054523 69 322 4.0 12.0 0.00 0.00 0.00 61 1012.1
20260903054023 70 336 4.0 12.0 0.00 0.00 0.00 61 1012.1
20260903053522 70 339 3.0 10.0 0.00 0.00 0.00 62 1012.1
20260903053022 70 349 4.0 10.0 0.00 0.00 0.00 62 1012.1
20260903052522 70 315 5.0 10.0 0.00 0.00 0.00 62 1012.1
20260903052024 71 339 4.0 9.0 0.00 0.00 0.00 61 1012.1
20260903051522 71 354 3.0 10.0 0.00 0.00 0.00 61 1012.0
20260903051023 71 15 5.0 11.0 0.00 0.00 0.00 61 1012.1
20260903050522 71 305 3.0 8.0 0.00 0.00 0.00 60 1012.1
20260903050025 72 273 4.0 9.0 0.00 0.00 0.00 60 1012.0
20260903045521 72 347 4.0 10.0 0.00 0.00 0.00 59 1012.0
20260903045021 72 334 5.0 12.0 0.00 0.00 0.00 59 1011.9
20260903044521 72 336 5.0 12.0 0.00 0.00 0.00 58 1012.0
20260903044024 72 340 6.0 10.0 0.00 0.00 0.00 57 1011.8
20260903043520 72 277 5.0 9.0 0.00 0.00 0.00 57 1011.8
20260903043020 72 327 4.0 9.0 0.00 0.00 0.00 57 1011.7
20260903042522 71 320 5.0 9.0 0.00 0.00 0.00 57 1011.6
20260903042020 71 268 3.0 6.0 0.00 0.00 0.00 57 1011.5
20260903041530 71 281 2.0 5.0 0.00 0.00 0.00 56 1011.5
20260903041020 71 268 3.0 7.0 0.00 0.00 0.00 56 1011.4
20260903040520 72 324 2.0 8.0 0.00 0.00 0.00 56 1011.4
20260903040020 72 283 3.0 9.0 0.00 0.00 0.00 56 1011.4
20260903035520 72 301 3.0 9.0 0.00 0.00 0.00 55 1011.3
20260903035023 72 289 3.0 11.0 0.00 0.00 0.00 55 1011.3
20260903034519 72 249 7.0 11.0 0.00 0.00 0.00 54 1011.2
20260903034022 73 261 3.0 12.0 0.00 0.00 0.00 54 1011.2
20260903033519 73 241 7.0 13.0 0.00 0.00 0.00 54 1011.2
20260903033019 73 268 6.0 13.0 0.00 0.00 0.00 53 1011.1
20260903032519 73 272 6.0 12.0 0.00 0.00 0.00 52 1011.1
20260903032019 74 246 7.0 14.0 0.00 0.00 0.00 52 1011.1
20260903031524 74 247 7.0 14.0 0.00 0.00 0.00 51 1011.0
20260903031018 75 251 7.0 14.0 0.00 0.00 0.00 50 1011.0
20260903030519 75 243 9.0 14.0 0.00 0.00 0.00 49 1011.0
20260903030019 76 285 8.0 13.0 0.00 0.00 0.00 49 1010.9
20260903025522 76 253 8.0 13.0 0.00 0.00 0.00 48 1010.9
20260903025018 77 248 8.0 13.0 0.00 0.00 0.00 46 1010.9
20260903024517 78 275 7.0 15.0 0.00 0.00 0.00 45 1010.8
20260903024017 79 288 7.0 14.0 0.00 0.00 0.00 42 1010.8
20260903023517 79 268 3.0 8.0 0.00 0.00 0.00 41 1010.8
20260903023016 80 235 5.0 8.0 0.00 0.00 0.00 40 1010.7
20260903022516 80 226 4.0 10.0 0.00 0.00 0.00 39 1010.8
20260903022016 80 301 3.0 10.0 0.00 0.00 0.00 39 1010.8
20260903021518 81 274 4.0 10.0 0.00 0.00 0.00 38 1010.7
20260903021016 81 284 5.0 11.0 0.00 0.00 0.00 38 1010.8
20260903020515 81 256 5.0 11.0 0.00 0.00 0.00 37 1010.8
20260903020031 82 193 6.0 11.0 0.00 0.00 0.00 37 1010.8
20260903015515 82 266 4.0 11.0 0.00 0.00 0.00 38 1010.9
20260903015015 82 239 5.0 10.0 0.00 0.00 0.00 37 1010.9
20260903014514 83 269 5.0 11.0 0.00 0.00 0.00 37 1010.9
20260903014016 83 262 5.0 11.0 0.00 0.00 0.00 37 1010.9
20260903013515 83 206 3.0 6.0 0.00 0.00 0.00 37 1010.9
20260903013014 83 280 2.0 8.0 0.00 0.00 0.00 36 1010.9
20260903012518 83 215 2.0 8.0 0.00 0.00 0.00 36 1010.9
20260903012015 84 255 2.0 4.0 0.00 0.00 0.00 35 1010.9
20260903011513 83 286 0.0 4.0 0.00 0.00 0.00 33 1010.9
20260903011012 83 330 0.0 8.0 0.00 0.00 0.00 33 1010.9
20260903010512 83 279 2.0 9.0 0.00 0.00 0.00 33 1011.0
20260903010014 83 257 4.0 9.0 0.00 0.00 0.00 33 1011.0
20260903005513 83 297 2.0 6.0 0.00 0.00 0.00 34 1010.9
20260903005015 83 272 2.0 7.0 0.00 0.00 0.00 33 1011.0
20260903004512 83 307 2.0 7.0 0.00 0.00 0.00 33 1011.0
20260903004011 84 289 3.0 9.0 0.00 0.00 0.00 33 1011.0
20260903003511 84 281 5.0 9.0 0.00 0.00 0.00 32 1011.1
20260903003010 84 278 3.0 10.0 0.00 0.00 0.00 33 1011.1
20260903002510 84 251 4.0 10.0 0.00 0.00 0.00 33 1011.2
20260903002012 83 240 5.0 11.0 0.00 0.00 0.00 33 1011.2
20260903001509 84 292 4.0 10.0 0.00 0.00 0.00 33 1011.3
20260903001012 84 249 6.0 10.0 0.00 0.00 0.00 33 1011.3
20260903000508 84 276 3.0 8.0 0.00 0.00 0.00 32 1011.4
20260903000008 85 236 4.0 7.0 0.00 0.00 0.00 32 1011.4
20260902235506 85 250 2.0 10.0 0.00 0.00 0.00 31 1011.4
20260902235007 85 249 4.0 10.0 0.00 0.00 0.00 31 1011.4
20260902234504 84 231 2.0 7.0 0.00 0.00 0.00 31 1011.4
20260902234004 84 222 4.0 9.0 0.00 0.00 0.00 31 1011.5
20260902233504 84 312 4.0 9.0 0.00 0.00 0.00 31 1011.5
20260902233003 84 321 2.0 8.0 0.00 0.00 0.00 30 1011.6
20260902232504 84 297 4.0 8.0 0.00 0.00 0.00 30 1011.7
20260902232002 84 305 4.0 8.0 0.00 0.00 0.00 30 1011.7
20260902231502 83 147 0.0 8.0 0.00 0.00 0.00 30 1011.8
20260902231101 83 122 1.0 9.0 0.00 0.00 0.00 31 1011.8
20260902230601 83 293 4.0 10.0 0.00 0.00 0.00 32 1011.9
20260902225559 83 248 5.0 10.0 0.00 0.00 0.00 30 1011.9
20260902225101 84 272 6.0 10.0 0.00 0.00 0.00 30 1012.1
20260902224601 83 297 2.0 8.0 0.00 0.00 0.00 32 1012.1
20260902224055 83 228 5.0 11.0 0.00 0.00 0.00 32 1012.2
20260902223555 83 258 7.0 11.0 0.00 0.00 0.00 32 1012.2
20260902223054 83 264 1.0 8.0 0.00 0.00 0.00 31 1012.3
20260902222553 83 134 3.0 8.0 0.00 0.00 0.00 32 1012.3
20260902222052 82 262 1.0 9.0 0.00 0.00 0.00 33 1012.4
20260902221552 83 330 4.0 11.0 0.00 0.00 0.00 32 1012.5
20260902221051 83 285 4.0 11.0 0.00 0.00 0.00 33 1012.4
20260902220549 82 150 2.0 9.0 0.00 0.00 0.00 34 1012.6
20260902220051 82 251 2.0 9.0 0.00 0.00 0.00 34 1012.7
20260902215548 81 262 2.0 8.0 0.00 0.00 0.00 35 1012.7
20260902215050 82 278 5.0 9.0 0.00 0.00 0.00 34 1012.7
20260902214549 82 257 5.0 9.0 0.00 0.00 0.00 34 1012.8
20260902214047 82 228 3.0 6.0 0.00 0.00 0.00 33 1012.9
20260902213548 81 154 1.0 8.0 0.00 0.00 0.00 34 1013.0
20260902213044 80 218 2.0 10.0 0.00 0.00 0.00 34 1013.1
20260902212543 81 239 5.0 10.0 0.00 0.00 0.00 33 1013.2
20260902212043 81 174 1.0 10.0 0.00 0.00 0.00 35 1013.2
20260902211544 80 322 4.0 10.0 0.00 0.00 0.00 36 1013.3
20260902211042 80 264 4.0 10.0 0.00 0.00 0.00 35 1013.4
20260902210544 80 241 4.0 9.0 0.00 0.00 0.00 35 1013.4
20260902210041 80 288 3.0 12.0 0.00 0.00 0.00 36 1013.4
20260902205541 80 244 4.0 12.0 0.00 0.00 0.00 36 1013.4
20260902205043 80 152 3.0 10.0 0.00 0.00 0.00 35 1013.4
20260902204540 79 208 6.0 10.0 0.00 0.00 0.00 37 1013.5
20260902204038 79 166 2.0 11.0 0.00 0.00 0.00 38 1013.5
20260902203538 78 194 6.0 11.0 0.00 0.00 0.00 38 1013.6
20260902203038 78 308 4.0 9.0 0.00 0.00 0.00 38 1013.6
20260902202538 78 251 2.0 8.0 0.00 0.00 0.00 40 1013.7
20260902202038 78 260 4.0 9.0 0.00 0.00 0.00 40 1013.8
20260902201547 78 316 4.0 9.0 0.00 0.00 0.00 39 1013.8
20260902201037 79 266 5.0 10.0 0.00 0.00 0.00 38 1013.9
20260902200539 79 234 4.0 10.0 0.00 0.00 0.00 37 1013.9
20260902200044 79 295 2.0 5.0 0.00 0.00 0.00 37 1013.9
20260902195536 79 322 1.0 4.0 0.00 0.00 0.00 38 1013.9
20260902195034 78 359 1.0 5.0 0.00 0.00 0.00 40 1013.9
20260902194547 77 138 3.0 7.0 0.00 0.00 0.00 40 1014.0
20260902194035 77 318 1.0 8.0 0.00 0.00 0.00 40 1014.0
20260902193532 77 277 4.0 8.0 0.00 0.00 0.00 40 1014.1
20260902193032 77 313 2.0 7.0 0.00 0.00 0.00 39 1014.2
20260902192530 77 152 1.0 7.0 0.00 0.00 0.00 39 1014.2
20260902192030 76 218 4.0 9.0 0.00 0.00 0.00 40 1014.3
20260902191529 76 227 3.0 9.0 0.00 0.00 0.00 40 1014.3
20260902191028 75 337 2.0 8.0 0.00 0.00 0.00 42 1014.3
20260902190530 75 298 3.0 8.0 0.00 0.00 0.00 43 1014.3
20260902190027 75 297 3.0 8.0 0.00 0.00 0.00 42 1014.4
20260902185527 76 337 2.0 5.0 0.00 0.00 0.00 42 1014.5
20260902185024 75 141 0.0 5.0 0.00 0.00 0.00 43 1014.5
20260902184528 75 334 1.0 8.0 0.00 0.00 0.00 44 1014.5